Location: ????????
(41.2031°N, 22.5756°E)
Time: 14:38:30
(UTC+00:00)

USA 238 DEB - Pass Details

Date: 01 December 2020
Orbit: 997 x 1215 km, 63.4° (Epoch: 11 January)

Event Time Altitude Azimuth Distance (km) Brightness Sun altitude
Rises 17:01:04 0° 212° (SSW) 3,709 7.2 -21.9°
Reaches altitude 10° 17:03:36 10° 213° (SSW) 2,774 6.4 -22.4°
Maximum altitude 17:10:08 90° 112° (ESE) 1,037 3.5 -23.6°
Enters shadow 17:13:09 36° 34° (NE) 1,592 4.2 -24.2°
